contact:dominique.lefevre@mio.osupytheas.fr, maurice.libes@osupytheas.fr, didier.mallarino@osupytheas.fr
Project:EMSO http://www.emso-fr.org/EMSO-France
Depth: 2436.0 m
Title:EMSO Ligure Ouest : Data MII capteur AQUADOPP
Date,Latitude,Longitude,X_East,Y_North,Z_Up,Amplitude_X,Amplitude_Y,Amplitude_Z,Batterie,SoundSpeed,Heading,Pitch,Roll,Pressure,TIS,Speed,Direction
, degrees North, degrees East, m.s-1, m.s-1,m.s-1, 1, 1, 1, Volt, m.s-1, degree, degree, degree, dbar, degree_C, m.s-1, degree
2020-12-28T00:04:03,42.805,6.029,0.005,0.04,0.033,105.0,117.0,102.0,13.4,1505.3,325.7,-0.7,1.8,2470.219,13.31,0.04,7.1
2020-12-28T00:07:03,42.805,6.029,-0.038,0.032,0.008,104.0,117.0,102.0,13.4,1505.3,325.9,-0.7,1.8,2470.212,13.31,0.049,310.1
2020-12-28T00:10:03,42.805,6.029,-0.02,0.028,0.012,104.0,117.0,101.0,13.4,1505.3,327.5,-0.7,1.9,2470.21,13.32,0.034,324.5
2020-12-28T00:13:03,42.805,6.029,0.001,0.005,-0.01,104.0,117.0,102.0,13.3,1505.3,323.0,-0.7,1.8,2470.221,13.32,0.005,11.3
2020-12-28T00:16:03,42.805,6.029,0.026,0.009,0.021,104.0,114.0,102.0,13.4,1505.3,324.4,-0.7,1.8,2470.214,13.32,0.027,70.9
2020-12-28T00:19:03,42.805,6.029,-0.05,0.004,-0.028,105.0,116.0,102.0,13.4,1505.3,324.5,-0.7,1.8,2470.203,13.32,0.05,274.6
2020-12-28T00:22:03,42.805,6.029,0.013,0.026,0.019,105.0,115.0,101.0,13.4,1505.3,327.0,-0.7,1.8,2470.211,13.32,0.029,26.6
2020-12-28T00:25:03,42.805,6.029,0.009,0.021,0.008,105.0,115.0,102.0,13.3,1505.3,324.7,-0.7,1.8,2470.178,13.32,0.022,23.2
2020-12-28T00:28:03,42.805,6.029,0.001,0.033,0.013,105.0,117.0,101.0,13.4,1505.3,326.6,-0.7,1.9,2470.183,13.32,0.033,1.7
2020-12-28T00:31:03,42.805,6.029,-0.021,0.004,-0.018,105.0,115.0,102.0,13.4,1505.3,324.1,-0.7,1.8,2470.167,13.32,0.021,280.8
2020-12-28T00:34:03,42.805,6.029,0.019,-0.005,-0.02,103.0,117.0,102.0,13.4,1505.3,325.6,-0.7,1.8,2470.211,13.32,0.019,104.7
2020-12-28T00:37:03,42.805,6.029,0.0,0.013,0.01,104.0,116.0,102.0,13.4,1505.3,327.2,-0.7,1.8,2470.215,13.32,0.013,0.0
2020-12-28T00:40:03,42.805,6.029,0.002,0.001,-0.007,105.0,114.0,102.0,13.4,1505.3,328.5,-0.7,1.8,2470.224,13.32,0.002,63.4
2020-12-28T00:43:03,42.805,6.029,0.0,0.018,0.028,104.0,114.0,102.0,13.3,1505.3,327.6,-0.7,1.8,2470.207,13.32,0.018,0.0
2020-12-28T00:46:03,42.805,6.029,0.015,-0.01,0.002,104.0,116.0,102.0,13.3,1505.3,328.1,-0.7,1.8,2470.2,13.32,0.018,123.7
2020-12-28T00:49:03,42.805,6.029,0.0,0.013,0.025,105.0,116.0,102.0,13.4,1505.3,327.5,-0.7,1.8,2470.185,13.32,0.013,0.0
2020-12-28T00:52:03,42.805,6.029,0.013,0.026,0.032,104.0,118.0,101.0,13.3,1505.3,325.7,-0.7,1.9,2470.176,13.32,0.029,26.6
2020-12-28T00:55:03,42.805,6.029,0.001,0.019,-0.005,105.0,116.0,102.0,13.4,1505.3,324.6,-0.7,1.8,2470.194,13.32,0.019,3.0
2020-12-28T00:58:03,42.805,6.029,-0.009,0.004,0.011,103.0,117.0,102.0,13.4,1505.3,323.0,-0.7,1.8,2470.191,13.32,0.009,294.0
2020-12-28T01:04:03,42.805,6.029,-0.027,0.03,0.017,106.0,119.0,102.0,13.3,1505.2,327.8,-0.7,1.8,2470.236,13.3,0.04,318.0
2020-12-28T01:07:03,42.805,6.029,0.01,0.003,0.006,104.0,118.0,102.0,13.4,1505.3,322.8,-0.7,1.8,2470.215,13.31,0.01,73.3
2020-12-28T01:10:03,42.805,6.029,0.001,0.029,0.023,104.0,115.0,101.0,13.4,1505.3,326.0,-0.7,1.8,2470.214,13.31,0.029,2.0
2020-12-28T01:13:03,42.805,6.029,-0.006,0.011,-0.016,105.0,116.0,101.0,13.4,1505.3,324.0,-0.7,1.8,2470.198,13.32,0.012,331.4
2020-12-28T01:16:03,42.805,6.029,-0.003,0.011,0.0,104.0,119.0,103.0,13.4,1505.3,325.7,-0.7,1.8,2470.234,13.32,0.011,344.7
2020-12-28T01:19:03,42.805,6.029,0.001,0.022,0.016,105.0,119.0,101.0,13.4,1505.3,325.3,-0.7,1.9,2470.219,13.32,0.022,2.6
2020-12-28T01:22:03,42.805,6.029,0.011,0.013,-0.009,104.0,117.0,102.0,13.4,1505.3,324.9,-0.7,1.8,2470.198,13.32,0.017,40.2
2020-12-28T01:25:03,42.805,6.029,-0.001,-0.001,-0.012,104.0,118.0,101.0,13.3,1505.3,327.0,-0.7,1.8,2470.203,13.32,0.001,225.0
2020-12-28T01:28:03,42.805,6.029,-0.008,0.03,-0.017,104.0,118.0,101.0,13.3,1505.3,327.9,-0.7,1.8,2470.222,13.32,0.031,345.1
2020-12-28T01:31:03,42.805,6.029,-0.009,0.01,-0.02,104.0,117.0,101.0,13.3,1505.3,324.1,-0.7,1.8,2470.233,13.32,0.013,318.0
2020-12-28T01:34:03,42.805,6.029,0.001,0.021,-0.02,105.0,119.0,102.0,13.3,1505.3,323.6,-0.7,1.8,2470.214,13.32,0.021,2.7
2020-12-28T01:37:03,42.805,6.029,-0.001,0.026,-0.026,104.0,118.0,102.0,13.4,1505.3,326.4,-0.7,1.8,2470.178,13.32,0.026,357.8
2020-12-28T01:40:03,42.805,6.029,0.026,0.004,-0.031,104.0,120.0,102.0,13.4,1505.3,327.0,-0.7,1.8,2470.225,13.32,0.026,81.3
2020-12-28T01:43:03,42.805,6.029,0.027,0.024,0.046,104.0,121.0,100.0,13.4,1505.3,325.3,-0.7,1.8,2470.218,13.32,0.036,48.4
2020-12-28T01:46:03,42.805,6.029,0.011,0.012,-0.002,102.0,116.0,102.0,13.4,1505.3,325.2,-0.7,1.8,2470.209,13.32,0.016,42.5
2020-12-28T01:49:03,42.805,6.029,0.0,0.009,0.027,103.0,119.0,101.0,13.3,1505.3,326.7,-0.7,1.8,2470.216,13.32,0.009,0.0
2020-12-28T01:52:03,42.805,6.029,0.014,0.006,-0.031,102.0,121.0,101.0,13.4,1505.3,325.7,-0.7,1.8,2470.241,13.32,0.015,66.8
2020-12-28T01:55:03,42.805,6.029,0.001,0.011,0.003,103.0,120.0,101.0,13.4,1505.3,327.1,-0.7,1.8,2470.232,13.32,0.011,5.2
2020-12-28T01:58:03,42.805,6.029,0.0,0.026,-0.01,104.0,119.0,100.0,13.3,1505.3,324.8,-0.7,1.8,2470.246,13.32,0.026,0.0
2020-12-28T02:04:03,42.805,6.029,0.002,0.015,-0.028,102.0,119.0,101.0,13.4,1505.2,325.6,-0.7,1.8,2470.262,13.3,0.015,7.6
2020-12-28T02:07:03,42.805,6.029,0.006,0.006,-0.008,103.0,120.0,102.0,13.4,1505.3,324.1,-0.7,1.8,2470.263,13.31,0.008,45.0
2020-12-28T02:10:03,42.805,6.029,0.008,0.015,-0.035,104.0,122.0,101.0,13.4,1505.3,324.1,-0.7,1.9,2470.251,13.31,0.017,28.1
2020-12-28T02:13:03,42.805,6.029,0.016,0.011,0.011,103.0,121.0,100.0,13.4,1505.3,328.3,-0.7,1.8,2470.267,13.32,0.019,55.5
2020-12-28T02:16:03,42.805,6.029,0.009,0.009,0.03,102.0,117.0,102.0,13.4,1505.3,327.6,-0.7,1.8,2470.253,13.32,0.012,45.0
2020-12-28T02:19:03,42.805,6.029,0.008,0.022,-0.03,104.0,120.0,102.0,13.3,1505.3,323.0,-0.7,1.8,2470.254,13.32,0.023,20.0
2020-12-28T02:22:03,42.805,6.029,-0.017,0.007,0.022,103.0,117.0,102.0,13.3,1505.3,324.9,-0.7,1.8,2470.238,13.32,0.018,292.4
2020-12-28T02:25:03,42.805,6.029,-0.011,0.016,-0.03,103.0,118.0,102.0,13.3,1505.3,327.7,-0.7,1.8,2470.263,13.32,0.019,325.5
2020-12-28T02:28:03,42.805,6.029,-0.006,-0.006,-0.013,105.0,117.0,102.0,13.3,1505.3,327.3,-0.7,1.8,2470.291,13.32,0.008,225.0
2020-12-28T02:31:03,42.805,6.029,0.002,-0.003,0.007,104.0,118.0,101.0,13.4,1505.3,324.7,-0.7,1.8,2470.232,13.32,0.003,146.3
2020-12-28T02:34:03,42.805,6.029,-0.004,0.025,-0.051,103.0,119.0,103.0,13.4,1505.3,325.2,-0.7,1.8,2470.259,13.32,0.025,350.9
2020-12-28T02:37:03,42.805,6.029,0.011,0.012,-0.041,104.0,121.0,101.0,13.4,1505.3,322.8,-0.7,1.8,2470.244,13.32,0.016,42.5
2020-12-28T02:40:03,42.805,6.029,-0.039,0.024,-0.022,104.0,118.0,100.0,13.4,1505.3,324.6,-0.7,1.9,2470.249,13.32,0.045,301.6
2020-12-28T02:43:03,42.805,6.029,0.021,-0.01,0.016,103.0,117.0,101.0,13.3,1505.3,326.9,-0.7,1.8,2470.224,13.32,0.023,115.5
2020-12-28T02:46:03,42.805,6.029,0.001,0.006,0.02,103.0,117.0,102.0,13.4,1505.3,324.2,-0.7,1.9,2470.28,13.32,0.006,9.5
2020-12-28T02:49:03,42.805,6.029,0.003,-0.009,-0.02,103.0,116.0,101.0,13.3,1505.3,324.4,-0.7,1.8,2470.297,13.32,0.009,161.6
2020-12-28T02:52:03,42.805,6.029,0.004,0.019,-0.029,104.0,117.0,101.0,13.4,1505.3,324.6,-0.7,1.8,2470.284,13.32,0.019,11.9
2020-12-28T02:55:03,42.805,6.029,0.0,0.031,-0.007,104.0,119.0,102.0,13.3,1505.3,326.1,-0.7,1.8,2470.27,13.32,0.03,0.0
2020-12-28T02:58:03,42.805,6.029,-0.002,0.012,-0.026,103.0,118.0,103.0,13.4,1505.3,326.1,-0.7,1.8,2470.283,13.32,0.012,350.5
2020-12-28T03:04:03,42.805,6.029,0.001,0.021,-0.018,104.0,119.0,102.0,13.4,1505.2,326.2,-0.7,1.8,2470.331,13.3,0.021,2.7
2020-12-28T03:07:03,42.805,6.029,0.003,0.016,-0.034,104.0,118.0,102.0,13.4,1505.3,326.0,-0.7,1.9,2470.296,13.31,0.016,10.6
2020-12-28T03:10:03,42.805,6.029,-0.004,0.009,0.015,104.0,117.0,101.0,13.3,1505.3,326.5,-0.7,1.8,2470.334,13.31,0.009,336.0
2020-12-28T03:13:03,42.805,6.029,0.005,0.016,0.013,103.0,118.0,101.0,13.4,1505.3,324.4,-0.7,1.8,2470.328,13.32,0.016,17.4
2020-12-28T03:16:03,42.805,6.029,0.031,0.022,-0.008,103.0,120.0,103.0,13.4,1505.3,326.0,-0.7,1.8,2470.329,13.32,0.038,54.6
2020-12-28T03:19:03,42.805,6.029,0.015,0.006,-0.025,104.0,118.0,101.0,13.4,1505.3,326.4,-0.7,1.8,2470.314,13.32,0.016,68.2
2020-12-28T03:22:03,42.805,6.029,0.015,0.003,-0.038,104.0,119.0,102.0,13.4,1505.3,325.0,-0.7,1.9,2470.308,13.32,0.015,78.7
2020-12-28T03:25:03,42.805,6.029,0.009,0.012,0.013,103.0,116.0,102.0,13.3,1505.3,324.5,-0.7,1.8,2470.32,13.32,0.015,36.9
2020-12-28T03:28:03,42.805,6.029,-0.007,0.009,-0.012,105.0,119.0,101.0,13.4,1505.3,325.9,-0.7,1.8,2470.329,13.32,0.011,322.1
2020-12-28T03:31:03,42.805,6.029,0.01,0.014,0.0,105.0,117.0,102.0,13.4,1505.3,323.1,-0.7,1.8,2470.31,13.32,0.017,35.5
2020-12-28T03:34:03,42.805,6.029,0.002,0.012,0.002,103.0,117.0,102.0,13.4,1505.3,326.1,-0.7,1.9,2470.298,13.32,0.012,9.5
2020-12-28T03:37:03,42.805,6.029,-0.003,0.009,-0.001,105.0,115.0,102.0,13.4,1505.3,325.5,-0.7,1.8,2470.296,13.32,0.009,341.6
2020-12-28T03:40:03,42.805,6.029,-0.001,-0.009,-0.065,105.0,116.0,102.0,13.3,1505.3,323.0,-0.7,1.9,2470.32,13.32,0.009,186.3
2020-12-28T03:43:03,42.805,6.029,0.008,-0.002,-0.045,105.0,117.0,102.0,13.3,1505.3,326.7,-0.7,1.8,2470.337,13.32,0.008,104.0
2020-12-28T03:46:03,42.805,6.029,0.002,0.01,0.015,104.0,117.0,102.0,13.4,1505.3,327.5,-0.7,1.8,2470.323,13.32,0.01,11.3
2020-12-28T03:49:03,42.805,6.029,-0.001,0.023,0.01,105.0,117.0,102.0,13.3,1505.3,324.9,-0.7,1.8,2470.304,13.32,0.023,357.5
2020-12-28T03:52:03,42.805,6.029,0.014,0.035,-0.005,104.0,118.0,102.0,13.4,1505.3,324.2,-0.7,1.9,2470.337,13.32,0.037,21.8
2020-12-28T03:55:03,42.805,6.029,0.017,0.025,0.012,105.0,117.0,102.0,13.3,1505.3,324.4,-0.7,1.8,2470.304,13.32,0.03,34.2
2020-12-28T03:58:03,42.805,6.029,-0.011,0.016,-0.004,106.0,117.0,101.0,13.3,1505.3,326.3,-0.7,1.8,2470.309,13.32,0.019,325.5
2020-12-28T04:04:03,42.805,6.029,0.018,0.013,0.015,104.0,115.0,103.0,13.4,1505.2,326.7,-0.8,1.8,2470.375,13.3,0.022,54.2
2020-12-28T04:07:03,42.805,6.029,0.014,0.0,0.011,105.0,115.0,101.0,13.4,1505.3,323.7,-0.7,1.8,2470.395,13.31,0.014,90.0
2020-12-28T04:10:03,42.805,6.029,-0.002,0.015,-0.025,105.0,114.0,103.0,13.3,1505.3,325.5,-0.7,1.8,2470.373,13.31,0.015,352.4
2020-12-28T04:13:03,42.805,6.029,0.014,-0.001,0.008,104.0,114.0,102.0,13.4,1505.3,327.2,-0.7,1.8,2470.374,13.32,0.014,94.1
2020-12-28T04:16:03,42.805,6.029,0.016,0.007,0.014,104.0,114.0,101.0,13.4,1505.3,324.6,-0.7,1.8,2470.343,13.32,0.017,66.4
2020-12-28T04:19:03,42.805,6.029,0.023,-0.006,0.001,105.0,114.0,102.0,13.4,1505.3,324.9,-0.7,1.8,2470.396,13.32,0.023,104.6
2020-12-28T04:22:03,42.805,6.029,0.025,0.011,0.031,105.0,114.0,101.0,13.4,1505.3,327.2,-0.7,1.8,2470.339,13.32,0.027,66.3
2020-12-28T04:25:03,42.805,6.029,0.006,-0.002,-0.017,104.0,112.0,102.0,13.3,1505.3,323.6,-0.7,1.8,2470.383,13.32,0.006,108.4
2020-12-28T04:28:03,42.805,6.029,0.006,0.001,0.018,104.0,114.0,102.0,13.4,1505.3,324.0,-0.7,1.8,2470.363,13.32,0.006,80.5
2020-12-28T04:31:03,42.805,6.029,0.01,0.0,-0.007,103.0,113.0,100.0,13.4,1505.3,327.3,-0.7,1.8,2470.327,13.32,0.01,90.0
2020-12-28T04:34:03,42.805,6.029,0.006,0.002,0.017,104.0,112.0,102.0,13.3,1505.3,326.4,-0.7,1.8,2470.337,13.32,0.006,71.6
2020-12-28T04:37:03,42.805,6.029,0.001,-0.017,-0.009,103.0,112.0,102.0,13.3,1505.3,328.5,-0.7,1.8,2470.377,13.32,0.017,176.6
2020-12-28T04:40:03,42.805,6.029,0.005,-0.011,0.01,105.0,112.0,101.0,13.3,1505.3,325.1,-0.7,1.8,2470.354,13.32,0.012,155.6
2020-12-28T04:43:03,42.805,6.029,0.034,0.006,0.026,104.0,112.0,102.0,13.4,1505.3,326.9,-0.7,1.8,2470.385,13.32,0.034,80.0
2020-12-28T04:46:03,42.805,6.029,0.04,-0.002,-0.01,105.0,111.0,103.0,13.4,1505.3,326.7,-0.7,1.8,2470.378,13.32,0.04,92.9
2020-12-28T04:49:03,42.805,6.029,0.018,0.001,-0.008,104.0,111.0,102.0,13.3,1505.3,326.8,-0.7,1.8,2470.411,13.32,0.018,86.8
2020-12-28T04:52:03,42.805,6.029,0.008,0.012,0.031,104.0,111.0,102.0,13.4,1505.3,326.1,-0.7,1.8,2470.382,13.32,0.014,33.7
2020-12-28T04:55:03,42.805,6.029,-0.003,0.009,-0.017,104.0,109.0,102.0,13.3,1505.3,325.6,-0.7,1.8,2470.349,13.32,0.009,341.6
2020-12-28T04:58:03,42.805,6.029,-0.009,0.006,0.001,104.0,111.0,102.0,13.4,1505.3,322.7,-0.7,1.8,2470.398,13.32,0.01,303.7
2020-12-28T05:04:03,42.805,6.029,0.027,0.003,0.018,105.0,111.0,102.0,13.4,1505.2,325.0,-0.8,1.8,2470.464,13.3,0.027,83.7
2020-12-28T05:07:03,42.805,6.029,0.012,0.007,0.029,104.0,112.0,102.0,13.4,1505.3,325.3,-0.7,1.8,2470.443,13.31,0.013,59.7
2020-12-28T05:10:03,42.805,6.029,0.019,-0.006,0.075,104.0,110.0,101.0,13.4,1505.3,326.8,-0.7,1.8,2470.409,13.31,0.019,107.5
2020-12-28T05:13:03,42.805,6.029,0.006,-0.017,0.022,105.0,110.0,102.0,13.3,1505.3,326.0,-0.7,1.8,2470.405,13.32,0.018,160.6
2020-12-28T05:16:03,42.805,6.029,-0.008,0.004,-0.003,104.0,111.0,101.0,13.3,1505.3,327.4,-0.7,1.8,2470.398,13.32,0.008,296.6
2020-12-28T05:19:03,42.805,6.029,0.033,0.013,0.039,103.0,113.0,101.0,13.3,1505.3,325.4,-0.7,1.8,2470.433,13.32,0.035,68.5
2020-12-28T05:22:03,42.805,6.029,0.011,0.003,0.005,104.0,110.0,102.0,13.3,1505.3,325.5,-0.7,1.9,2470.383,13.32,0.011,74.7
2020-12-28T05:25:03,42.805,6.029,0.027,0.005,0.011,104.0,111.0,102.0,13.3,1505.3,325.5,-0.7,1.8,2470.382,13.32,0.027,79.5
2020-12-28T05:28:03,42.805,6.029,0.029,0.011,0.03,103.0,111.0,102.0,13.4,1505.3,325.6,-0.7,1.8,2470.374,13.32,0.031,69.2
2020-12-28T05:31:03,42.805,6.029,-0.008,0.006,-0.016,105.0,110.0,101.0,13.4,1505.3,326.6,-0.7,1.9,2470.401,13.32,0.01,306.9
2020-12-28T05:34:03,42.805,6.029,0.028,0.007,0.017,104.0,111.0,102.0,13.4,1505.3,327.6,-0.7,1.9,2470.418,13.32,0.028,76.0
2020-12-28T05:37:03,42.805,6.029,0.035,0.008,0.027,103.0,111.0,103.0,13.4,1505.3,324.7,-0.7,1.8,2470.433,13.32,0.035,77.1
2020-12-28T05:40:03,42.805,6.029,0.015,-0.017,-0.025,104.0,112.0,101.0,13.3,1505.3,325.7,-0.7,1.8,2470.41,13.32,0.022,138.6
2020-12-28T05:43:03,42.805,6.029,-0.01,0.004,-0.006,104.0,112.0,102.0,13.3,1505.3,324.5,-0.7,1.8,2470.412,13.32,0.01,291.8
2020-12-28T05:46:03,42.805,6.029,0.022,0.021,0.006,104.0,113.0,101.0,13.4,1505.3,327.1,-0.7,1.8,2470.376,13.32,0.03,46.3
2020-12-28T05:49:03,42.805,6.029,0.017,0.009,0.01,103.0,113.0,102.0,13.4,1505.3,325.1,-0.7,1.8,2470.388,13.32,0.019,62.1
2020-12-28T05:52:03,42.805,6.029,0.016,0.022,0.021,104.0,112.0,102.0,13.3,1505.3,324.5,-0.7,1.8,2470.438,13.32,0.027,36.0
2020-12-28T05:55:03,42.805,6.029,0.026,0.008,0.025,103.0,112.0,101.0,13.4,1505.3,327.8,-0.7,1.8,2470.387,13.32,0.027,72.9
2020-12-28T05:58:03,42.805,6.029,0.0,0.006,0.008,104.0,110.0,101.0,13.3,1505.3,326.7,-0.7,1.8,2470.41,13.32,0.006,0.0
2020-12-28T06:04:03,42.805,6.029,-0.003,0.004,0.003,104.0,111.0,102.0,13.4,1505.2,323.2,-0.8,1.8,2470.477,13.3,0.005,323.1
2020-12-28T06:07:03,42.805,6.029,0.0,0.02,0.011,104.0,113.0,102.0,13.4,1505.3,324.3,-0.7,1.8,2470.454,13.31,0.02,0.0
2020-12-28T06:10:03,42.805,6.029,0.014,0.003,0.007,105.0,112.0,101.0,13.3,1505.3,327.7,-0.7,1.8,2470.46,13.32,0.014,77.9
2020-12-28T06:13:03,42.805,6.029,0.009,0.02,0.003,104.0,112.0,102.0,13.4,1505.3,323.2,-0.7,1.8,2470.458,13.32,0.021,24.2
2020-12-28T06:16:03,42.805,6.029,0.004,0.013,0.009,105.0,113.0,101.0,13.4,1505.3,324.9,-0.7,1.8,2470.427,13.32,0.013,17.1
2020-12-28T06:19:03,42.805,6.029,0.002,-0.011,-0.013,105.0,112.0,103.0,13.4,1505.3,324.2,-0.8,1.8,2470.451,13.32,0.011,169.7
2020-12-28T06:22:03,42.805,6.029,0.021,0.009,0.044,104.0,111.0,101.0,13.4,1505.3,325.7,-0.7,1.8,2470.434,13.32,0.022,66.8
2020-12-28T06:25:03,42.805,6.029,0.021,0.0,0.009,105.0,112.0,101.0,13.4,1505.3,328.2,-0.7,1.8,2470.431,13.32,0.021,90.0
2020-12-28T06:28:03,42.805,6.029,-0.004,0.016,0.003,106.0,113.0,102.0,13.3,1505.3,323.1,-0.7,1.8,2470.423,13.32,0.016,346.0
2020-12-28T06:31:03,42.805,6.029,0.02,-0.013,0.0,104.0,113.0,102.0,13.3,1505.3,326.7,-0.7,1.8,2470.447,13.32,0.023,123.0
2020-12-28T06:34:03,42.805,6.029,-0.015,0.017,-0.032,105.0,111.0,102.0,13.4,1505.3,324.3,-0.7,1.8,2470.436,13.32,0.022,318.6
2020-12-28T06:37:03,42.805,6.029,0.004,0.009,0.035,104.0,112.0,102.0,13.4,1505.3,327.9,-0.7,1.8,2470.425,13.32,0.009,24.0
2020-12-28T06:40:03,42.805,6.029,-0.019,0.012,-0.02,104.0,112.0,102.0,13.4,1505.3,324.9,-0.7,1.9,2470.457,13.32,0.022,302.3
2020-12-28T06:43:03,42.805,6.029,0.022,-0.002,0.028,105.0,113.0,102.0,13.4,1505.3,323.0,-0.7,1.8,2470.442,13.33,0.022,95.2
2020-12-28T06:46:03,42.805,6.029,0.002,0.012,0.029,105.0,112.0,101.0,13.4,1505.3,325.5,-0.7,1.8,2470.444,13.33,0.012,9.5
2020-12-28T06:49:03,42.805,6.029,-0.003,0.007,0.036,104.0,112.0,102.0,13.4,1505.3,324.6,-0.7,1.8,2470.417,13.33,0.007,336.8
2020-12-28T06:55:03,42.805,6.029,0.027,0.011,0.025,105.0,113.0,102.0,13.3,1505.3,325.5,-0.8,1.8,2470.495,13.31,0.029,67.8
2020-12-28T06:58:03,42.805,6.029,0.009,-0.014,-0.022,104.0,112.0,102.0,13.4,1505.3,324.0,-0.7,1.8,2470.423,13.31,0.016,147.3
2020-12-28T07:04:03,42.805,6.029,0.015,-0.01,-0.004,103.0,113.0,101.0,13.4,1505.2,328.3,-0.7,1.8,2470.537,13.3,0.018,123.7
2020-12-28T07:07:03,42.805,6.029,-0.014,0.004,0.018,105.0,112.0,101.0,13.4,1505.3,327.0,-0.7,1.9,2470.444,13.31,0.014,285.9
2020-12-28T07:10:03,42.805,6.029,-0.005,-0.002,-0.029,104.0,113.0,101.0,13.4,1505.3,327.0,-0.7,1.8,2470.471,13.31,0.005,248.2
2020-12-28T07:13:03,42.805,6.029,0.002,0.0,-0.004,105.0,114.0,101.0,13.4,1505.3,328.3,-0.7,1.8,2470.443,13.32,0.002,90.0
2020-12-28T07:16:03,42.805,6.029,0.018,0.001,0.019,105.0,113.0,101.0,13.4,1505.3,325.4,-0.7,1.8,2470.466,13.32,0.018,86.8
2020-12-28T07:19:03,42.805,6.029,0.0,0.002,-0.008,105.0,112.0,101.0,13.3,1505.3,324.1,-0.7,1.8,2470.432,13.32,0.002,0.0
2020-12-28T07:22:03,42.805,6.029,0.014,-0.002,-0.009,104.0,113.0,101.0,13.4,1505.3,325.7,-0.7,1.9,2470.476,13.32,0.014,98.1
2020-12-28T07:25:03,42.805,6.029,0.004,0.0,0.0,104.0,111.0,101.0,13.3,1505.3,323.5,-0.7,1.8,2470.449,13.32,0.004,90.0
2020-12-28T07:28:03,42.805,6.029,-0.013,0.001,-0.01,105.0,111.0,102.0,13.3,1505.3,327.3,-0.7,1.8,2470.45,13.32,0.013,274.4
2020-12-28T07:31:03,42.805,6.029,0.039,0.0,0.033,105.0,113.0,102.0,13.3,1505.3,324.0,-0.7,1.8,2470.462,13.33,0.039,90.0
2020-12-28T07:34:03,42.805,6.029,-0.018,-0.002,-0.025,104.0,112.0,102.0,13.4,1505.3,323.0,-0.8,1.8,2470.446,13.32,0.018,263.7
2020-12-28T07:37:03,42.805,6.029,0.013,0.0,0.036,104.0,113.0,102.0,13.4,1505.3,327.0,-0.7,1.9,2470.43,13.32,0.013,90.0
2020-12-28T07:40:03,42.805,6.029,0.015,0.013,-0.012,105.0,112.0,102.0,13.3,1505.3,324.6,-0.7,1.8,2470.41,13.33,0.019,49.1
2020-12-28T07:43:03,42.805,6.029,-0.014,0.015,-0.035,105.0,111.0,102.0,13.4,1505.3,323.3,-0.7,1.8,2470.432,13.33,0.02,317.0
2020-12-28T07:46:03,42.805,6.029,-0.017,0.011,-0.027,105.0,113.0,102.0,13.3,1505.3,324.4,-0.7,1.8,2470.444,13.33,0.02,302.9
2020-12-28T07:49:03,42.805,6.029,0.013,-0.001,0.01,105.0,111.0,102.0,13.3,1505.3,324.6,-0.7,1.8,2470.389,13.33,0.013,94.4
2020-12-28T07:52:03,42.805,6.029,-0.003,0.029,0.005,105.0,112.0,101.0,13.4,1505.3,326.4,-0.7,1.8,2470.402,13.33,0.029,354.1
2020-12-28T07:55:03,42.805,6.029,-0.007,0.016,-0.001,106.0,110.0,102.0,13.4,1505.3,323.6,-0.7,1.8,2470.388,13.33,0.017,336.4
2020-12-28T07:58:03,42.805,6.029,-0.007,0.018,0.012,104.0,113.0,103.0,13.4,1505.3,328.0,-0.7,1.8,2470.422,13.33,0.019,338.8
2020-12-28T08:04:03,42.805,6.029,-0.002,0.008,-0.004,105.0,114.0,102.0,13.4,1505.3,324.1,-0.7,1.8,2470.457,13.31,0.008,346.0
2020-12-28T08:07:03,42.805,6.029,0.006,-0.005,-0.023,104.0,113.0,102.0,13.4,1505.3,326.5,-0.7,1.8,2470.4,13.31,0.007,129.8
2020-12-28T08:10:03,42.805,6.029,-0.008,0.014,0.016,105.0,115.0,100.0,13.4,1505.3,323.0,-0.7,1.8,2470.413,13.32,0.016,330.3
2020-12-28T08:13:03,42.805,6.029,0.01,0.026,0.012,104.0,113.0,102.0,13.4,1505.3,327.9,-0.7,1.9,2470.41,13.32,0.027,21.0
2020-12-28T08:16:03,42.805,6.029,0.01,0.002,-0.005,104.0,114.0,101.0,13.4,1505.3,326.4,-0.7,1.8,2470.41,13.32,0.01,78.7
2020-12-28T08:19:03,42.805,6.029,-0.004,0.008,-0.006,105.0,113.0,101.0,13.3,1505.3,328.0,-0.7,1.8,2470.425,13.32,0.008,333.4
2020-12-28T08:22:03,42.805,6.029,0.008,0.0,-0.005,105.0,113.0,102.0,13.3,1505.3,327.7,-0.7,1.8,2470.401,13.32,0.008,90.0
2020-12-28T08:25:03,42.805,6.029,-0.012,0.005,0.001,104.0,113.0,101.0,13.3,1505.3,324.6,-0.7,1.8,2470.429,13.33,0.013,292.6
2020-12-28T08:28:03,42.805,6.029,-0.001,0.0,-0.021,104.0,113.0,102.0,13.3,1505.3,326.3,-0.7,1.8,2470.392,13.33,0.001,270.0
2020-12-28T08:31:03,42.805,6.029,0.024,0.015,0.061,105.0,112.0,102.0,13.3,1505.3,325.1,-0.7,1.8,2470.42,13.33,0.028,58.0
2020-12-28T08:34:03,42.805,6.029,0.02,-0.013,0.005,105.0,113.0,101.0,13.3,1505.3,328.2,-0.7,1.8,2470.425,13.33,0.023,123.0
2020-12-28T08:37:03,42.805,6.029,-0.013,-0.008,0.013,104.0,114.0,100.0,13.4,1505.3,322.9,-0.7,1.8,2470.412,13.33,0.015,238.4
2020-12-28T08:40:03,42.805,6.029,-0.001,0.022,-0.012,105.0,112.0,102.0,13.4,1505.3,326.4,-0.7,1.8,2470.402,13.33,0.022,357.4
2020-12-28T08:43:03,42.805,6.029,-0.003,0.01,-0.002,105.0,111.0,101.0,13.4,1505.3,328.3,-0.7,1.8,2470.382,13.33,0.01,343.3
2020-12-28T08:46:03,42.805,6.029,0.016,0.0,0.002,104.0,112.0,101.0,13.3,1505.3,323.0,-0.7,1.8,2470.422,13.33,0.016,90.0
2020-12-28T08:49:03,42.805,6.029,-0.018,0.006,-0.007,106.0,112.0,101.0,13.4,1505.3,326.7,-0.7,1.8,2470.445,13.33,0.018,288.4
2020-12-28T08:52:03,42.805,6.029,0.004,-0.005,0.004,105.0,112.0,102.0,13.4,1505.3,323.8,-0.7,1.8,2470.415,13.33,0.006,141.3
2020-12-28T08:55:03,42.805,6.029,-0.014,0.028,-0.019,105.0,112.0,102.0,13.3,1505.3,324.6,-0.7,1.8,2470.396,13.33,0.031,333.4
2020-12-28T08:58:03,42.805,6.029,0.024,0.011,-0.003,104.0,113.0,101.0,13.4,1505.3,327.1,-0.7,1.8,2470.392,13.33,0.026,65.4
2020-12-28T09:04:03,42.805,6.029,0.015,0.009,0.025,104.0,113.0,102.0,13.4,1505.3,326.2,-0.8,1.8,2470.444,13.31,0.017,59.0
2020-12-28T09:07:03,42.805,6.029,-0.024,0.02,0.001,105.0,112.0,102.0,13.4,1505.3,327.9,-0.7,1.8,2470.428,13.31,0.031,309.8
2020-12-28T09:10:03,42.805,6.029,0.005,0.009,0.014,105.0,114.0,102.0,13.4,1505.3,323.1,-0.7,1.8,2470.435,13.32,0.01,29.1
2020-12-28T09:13:03,42.805,6.029,0.007,0.014,0.001,106.0,113.0,100.0,13.4,1505.3,326.8,-0.7,1.8,2470.42,13.32,0.015,26.6
2020-12-28T09:16:03,42.805,6.029,0.007,0.006,0.011,105.0,113.0,101.0,13.4,1505.3,326.5,-0.7,1.8,2470.411,13.32,0.009,49.4
2020-12-28T09:19:03,42.805,6.029,-0.01,0.017,-0.017,104.0,112.0,100.0,13.4,1505.3,323.5,-0.7,1.9,2470.422,13.32,0.019,329.5
2020-12-28T09:22:03,42.805,6.029,0.028,0.001,0.009,105.0,113.0,101.0,13.4,1505.3,326.4,-0.7,1.8,2470.394,13.32,0.028,88.0
2020-12-28T09:25:03,42.805,6.029,0.011,0.003,-0.003,103.0,113.0,103.0,13.4,1505.3,324.7,-0.7,1.8,2470.442,13.32,0.011,74.7
2020-12-28T09:28:03,42.805,6.029,0.0,-0.005,-0.01,104.0,111.0,103.0,13.4,1505.3,326.3,-0.7,1.8,2470.394,13.33,0.005,180.0
2020-12-28T09:31:03,42.805,6.029,-0.021,0.013,-0.013,104.0,111.0,101.0,13.4,1505.3,327.1,-0.7,1.8,2470.355,13.33,0.024,301.8
2020-12-28T09:34:03,42.805,6.029,-0.014,0.004,0.004,105.0,111.0,101.0,13.4,1505.3,324.0,-0.7,1.8,2470.362,13.33,0.014,285.9
2020-12-28T09:37:03,42.805,6.029,0.009,0.004,0.003,105.0,110.0,101.0,13.4,1505.3,324.4,-0.7,1.8,2470.361,13.33,0.009,66.0
2020-12-28T09:40:03,42.805,6.029,0.009,0.022,0.001,105.0,111.0,101.0,13.4,1505.3,327.7,-0.7,1.8,2470.326,13.33,0.023,22.2
2020-12-28T09:43:03,42.805,6.029,-0.018,-0.003,0.01,103.0,113.0,102.0,13.3,1505.3,326.0,-0.7,1.8,2470.392,13.33,0.018,260.5
2020-12-28T09:46:03,42.805,6.029,0.007,-0.023,-0.022,104.0,111.0,102.0,13.4,1505.3,323.5,-0.7,1.8,2470.407,13.33,0.024,163.1
2020-12-28T09:49:03,42.805,6.029,-0.012,0.015,-0.004,105.0,111.0,101.0,13.4,1505.3,326.4,-0.7,1.8,2470.38,13.33,0.019,321.3
2020-12-28T09:52:03,42.805,6.029,0.011,0.008,0.012,106.0,112.0,102.0,13.4,1505.3,326.2,-0.7,1.8,2470.363,13.33,0.013,54.0
2020-12-28T09:55:03,42.805,6.029,0.001,-0.003,-0.017,105.0,110.0,102.0,13.4,1505.3,325.2,-0.7,1.8,2470.392,13.33,0.003,161.6
2020-12-28T09:58:03,42.805,6.029,0.029,-0.008,-0.012,104.0,111.0,102.0,13.3,1505.3,325.5,-0.7,1.8,2470.365,13.33,0.03,105.4
2020-12-28T10:04:03,42.805,6.029,-0.008,0.01,0.001,103.0,110.0,101.0,13.4,1505.3,324.2,-0.8,1.8,2470.401,13.31,0.012,321.3
2020-12-28T10:07:03,42.805,6.029,0.011,-0.008,-0.011,105.0,111.0,101.0,13.4,1505.3,326.1,-0.7,1.8,2470.405,13.31,0.013,126.0